Location: Redwood City
(37.4850°N, 122.2350°W)
Time: 01:20:38
(UTC-08:00)

ISS - Visible Passes

Search period start: 27 November 2014 00:00
Search period end: 07 December 2014 00:00
Orbit: 407 x 417 km, 51.6° (Epoch: 26 November)

Date Brightness Start Highest point End Pass type
(mag) Time Alt. Az. Time Alt. Az. Time Alt. Az.
27 Nov -2.4 05:20:36 38° N 05:21:08 42° NE 05:24:17 10° ESE visible
28 Nov -0.3 04:33:05 16° ENE 04:33:05 16° ENE 04:34:00 10° E visible
28 Nov -2.3 06:05:55 17° W 06:07:51 32° SW 06:10:50 10° SSE visible
29 Nov -3.0 05:18:26 59° S 05:18:26 59° S 05:21:19 10° SE visible
30 Nov -0.1 04:30:59 13° ESE 04:30:59 13° ESE 04:31:25 10° ESE visible
30 Nov -1.0 06:03:49 11° WSW 06:04:23 11° SW 06:05:28 10° SSW visible
01 Dec -0.9 05:16:24 14° S 05:16:24 14° S 05:17:11 10° S visible
05 Dec -1.3 18:31:50 10° S 18:33:20 19° SSE 18:33:20 19° SSE visible
06 Dec -1.1 17:43:04 10° SSE 17:44:32 13° SE 17:45:38 11° ESE visible
06 Dec -0.4 19:17:33 10° WSW 19:18:27 17° WSW 19:18:27 17° WSW visible
